World > North America > United States > Ohio > Freedom  

Freedom, OH Hourly Weather Updates

Feedback E-mail the Weather

Quick Clicks

Freedom, OH Weather Maps

°F °C°F °C
Freedom Weather Map
UTC Time: 6/13/2024, 20:50
Your Time:

Freedom, OH Regional Weather

Expires:202406132100;;961596
ASUS41 KCLE 132012
RWRCLE
OHIO REGIONAL WEATHER ROUNDUP
NATIONAL WEATHER SERVICE WILMINGTON, OH
400 PM EDT THU JUN 13 2024

NOTE: "FAIR" INDICATES FEW OR NO CLOUDS BELOW 12,000 FEET WITH NO
SIGNIFICANT WEATHER AND/OR OBSTRUCTIONS TO VISIBILITY.


OHZ009>014-019>023-028>033-038-089-132100-
   NORTHEAST OHIO
  
CITY           SKY/WX    TMP DP  RH WIND       PRES   REMARKS
CLE-HOPKINS    PTSUNNY   85  60  42 SW15G24   29.89F                  
CLE-LAKEFRONT  FAIR      90  60  36 SW14G29   29.88F                  
CUY CO. ARPT   MOSUNNY   90  63  40 W17G23    29.90F HX  90           
LORAIN-ELYRIA  FAIR      87  60  40 SW15      29.91F                  
ASHTABULA      FAIR      87  61  41 SW10G20   29.91S                  
AKRON-CANTON   FAIR      85  59  41 SW9       29.96R                  
WOOSTER        FAIR      87  59  38 SW15G23   29.95F                  
MANSFIELD      FAIR      83  59  44 SW13      29.95F                  
YOUNGSTOWN     FAIR      85  58  39 S13G22    29.95S                  
$$
 

SKY/WX - Weather  TMP - Temperature  DP - Dew Point  RH - Humidity
WIND - Wind Direction/Speed PRES - Barometric Pressure VSB - Visibility
WCI - Wind Chill Index E13G22 Wind - East Wind 13 mph/Gusts of 22 mph

Trending Headlines

Trending Entertainment Headlines

Freedom Radar Loop

Use the map search tool if you want to place a location marker on the radar map...

Freedom Quick Facts

National Two Day Weather Forecast


E-mail the Freedom Weather Forecast

Voice your opinion or tell us about page issues...